This is the latest recevied weather packets stored in our database for station/object KE8ZLU. If no packets are shown the sender has not sent any weather packets the latest 1 day(s).
| Time | Temp. | Humidity | Pressure | Rain* | Wind** | Luminosity | Snow |
|---|---|---|---|---|---|---|---|
| 1778004159 | 11.11° C | 69% | 1009.3 hPa | 0 mm | 3.58 m/s, 289° | 277 W/m² | - |
| 1778003855 | 11.11° C | 67% | 1008.9 hPa | 0 mm | 4.02 m/s, 319° | 266 W/m² | - |
| 1778003552 | 11.67° C | 67% | 1008.9 hPa | 0 mm | 3.13 m/s, 272° | 167 W/m² | - |
| 1778003248 | 11.67° C | 68% | 1008.9 hPa | 0 mm | 4.02 m/s, 283° | 328 W/m² | - |
| 1778002945 | 11.67° C | 67% | 1008.7 hPa | 0 mm | 4.92 m/s, 315° | 432 W/m² | - |
| 1778002641 | 11.67° C | 72% | 1008.6 hPa | 0 mm | 2.24 m/s, 304° | 370 W/m² | - |
| 1778002338 | 11.67° C | 71% | 1008.5 hPa | 0 mm | 3.13 m/s, 296° | 368 W/m² | - |
| 1778002035 | 11.67° C | 71% | 1008.7 hPa | 0 mm | 2.68 m/s, 281° | 362 W/m² | - |
| 1778001732 | 11.11° C | 75% | 1008.7 hPa | 0 mm | 3.13 m/s, 305° | 325 W/m² | - |
| 1778001432 | 11.11° C | 74% | 1008.3 hPa | 0 mm | 2.24 m/s, 343° | 341 W/m² | - |
| 1778001130 | 11.11° C | 76% | 1008.5 hPa | 0 mm | 1.79 m/s, 286° | 293 W/m² | - |
| 1778000826 | 10.56° C | 74% | 1008.3 hPa | 0 mm | 2.24 m/s, 306° | 259 W/m² | - |
| 1778000523 | 10.56° C | 78% | 1008.5 hPa | 0 mm | 2.68 m/s, 264° | 288 W/m² | - |
| 1778000228 | 10.56° C | 78% | 1008.7 hPa | 0 mm | 2.68 m/s, 264° | 288 W/m² | - |
| 1777999920 | 10.56° C | 82% | 1008.5 hPa | 0 mm | 1.79 m/s, 354° | 315 W/m² | - |
| 1777999615 | 10.56° C | 82% | 1008.6 hPa | 0 mm | 1.79 m/s, 354° | 315 W/m² | - |
| 1777999313 | 10.56° C | 82% | 1008.5 hPa | 0 mm | 1.79 m/s, 354° | 315 W/m² | - |
| 1777999011 | 10.56° C | 81% | 1008.3 hPa | 0 mm | 2.24 m/s, 314° | 315 W/m² | - |
| 1777998709 | 10.56° C | 81% | 1008.6 hPa | 0 mm | 2.24 m/s, 300° | 344 W/m² | - |
| 1777998406 | 10.56° C | 82% | 1008.4 hPa | 0 mm | 4.02 m/s, 287° | 386 W/m² | - |
| 1777998103 | 10° C | 82% | 1008.6 hPa | 0 mm | 3.13 m/s, 251° | 588 W/m² | - |
| 1777997800 | 10° C | 85% | 1008.9 hPa | 0 mm | 2.68 m/s, 272° | 365 W/m² | - |
| 1777997497 | 9.44° C | 84% | 1008.8 hPa | 0 mm | 3.13 m/s, 275° | 254 W/m² | - |
| 1777997195 | 9.44° C | 84% | 1008.6 hPa | 0 mm | 3.13 m/s, 275° | 254 W/m² | - |
| 1777996892 | 9.44° C | 84% | 1008.9 hPa | 0 mm | 3.13 m/s, 275° | 254 W/m² | - |
* Rain latest hour (hover to see other rain measurements)
** Current wind speed in m/s (hover to see current wind gust speed)